This is the latest recevied weather packets stored in our database for station/object R8AHC-13. If no packets are shown the sender has not sent any weather packets the latest 10 day(s).
| Time | Temp. | Humidity | Pressure | Rain* | Wind** | Luminosity | Snow |
|---|---|---|---|---|---|---|---|
| 1777462623 | 12.22° C | 30% | 1018 hPa | - | 5.81 m/s, 240° | - | - |
| 1777459022 | 12.22° C | 30% | 1018 hPa | - | 7.15 m/s, 230° | - | - |
| 1777455423 | 12.22° C | 30% | 1018 hPa | - | 4.92 m/s, 230° | - | - |
| 1777451822 | 12.22° C | 30% | 1019 hPa | - | 7.15 m/s, 230° | - | - |
| 1777448222 | 12.22° C | 30% | 1019 hPa | - | 4.92 m/s, 230° | - | - |
| 1777444622 | 12.22° C | 30% | 1019 hPa | - | 3.13 m/s, 210° | - | - |
| 1777441022 | 12.22° C | 30% | 1020 hPa | - | 4.92 m/s, 260° | - | - |
| 1777437422 | 6.11° C | 61% | 1020 hPa | - | 4.92 m/s, 270° | - | - |
| 1777433822 | 6.11° C | 61% | 1020 hPa | - | 3.13 m/s, 240° | - | - |
| 1777430221 | 6.11° C | 61% | 1020 hPa | - | 3.13 m/s, 230° | - | - |
| 1777426622 | 2.22° C | 75% | 1020 hPa | - | 1.79 m/s, 220° | - | - |
| 1777423022 | 0° C | 74% | 1020 hPa | - | 1.79 m/s, 180° | - | - |
| 1777419422 | 7.78° C | 66% | 1020 hPa | - | 1.79 m/s, 200° | - | - |
| 1777415822 | 7.78° C | 66% | 1020 hPa | - | 0.89 m/s, 260° | - | - |
| 1777412222 | 7.78° C | 66% | 1020 hPa | - | 3.13 m/s, 290° | - | - |
| 1777408622 | 7.78° C | 66% | 1019 hPa | - | 3.13 m/s, 300° | - | - |
| 1777405021 | 7.78° C | 66% | 1019 hPa | - | 3.13 m/s, 310° | - | - |
| 1777401422 | 7.78° C | 66% | 1019 hPa | - | 4.02 m/s, 270° | - | - |
| 1777397830 | 10° C | 93% | 1019 hPa | - | 4.92 m/s, 220° | - | - |
| 1777394222 | 10° C | 93% | 1018 hPa | - | 4.02 m/s, 200° | - | - |
| 1777390622 | 11.11° C | 87% | 1018 hPa | - | 5.81 m/s, 180° | - | - |
| 1777387022 | 12.22° C | 82% | 1017 hPa | - | 5.81 m/s, 180° | - | - |
| 1777383423 | 12.22° C | 82% | 1017 hPa | - | 8.05 m/s, 170° | - | - |
| 1777379822 | 12.22° C | 43% | 1017 hPa | - | 8.94 m/s, 180° | - | - |
| 1777376221 | 12.22° C | 43% | 1016 hPa | - | 8.94 m/s, 190° | - | - |
* Rain since midnight (hover to see other rain measurements)
** Current wind speed in m/s (hover to see current wind gust speed)